Regional Weather Roundup
Issued by NWS

Home | Current Version | Previous Version | Graphics & Text | Print | Product List | Glossary On
Versions: 1 2 3 4 5 6 7 8 9 10 11 12 13 14 15 16 17 18 19 20 21 22 23 24 25 26 27 28 29 30 31 32 33 34 35 36 37 38 39 40 41 42 43 44 45 46 47 48 49 50
000
ASUS43 KFSD 260010
RWRSD

WEATHER ROUNDUP FOR SOUTH DAKOTA
NATIONAL WEATHER SERVICE SIOUX FALLS SD
700 PM CDT SAT OCT 25 2014

NOTE: "FAIR" INDICATES FEW OR NO CLOUDS BELOW 12,000 FEET WITH NO
SIGNIFICANT WEATHER AND/OR OBSTRUCTIONS TO VISIBILITY.


SDZ001>005-009-010-012>017-260100-
NORTHWEST AND NORTH CENTRAL SOUTH DAKOTA

CITY           SKY/WX    TMP DP  RH WIND       PRES   REMARKS
BUFFALO          N/A     56  31  38 SE13      29.87F
FAITH            N/A     57  30  35 SE13      29.97F
MOBRIDGE       CLEAR     56  31  38 SE8       30.00F
$$

SDZ012>016-024>037-041>051-057-063-072>074-260100-
SOUTHWEST AND SOUTH CENTRAL SOUTH DAKOTA

CITY           SKY/WX    TMP DP  RH WIND       PRES   REMARKS
RAPID CTY ARPT CLEAR     56  38  50 SE8       29.96F
PIERRE         CLEAR     55  29  36 SE8       30.01F
CUSTER         CLEAR     56  36  47 CALM      30.04F
ELLSWORTH AFB  CLEAR     60  39  45 SE12      29.95F
PHILIP         CLEAR     54  33  45 E9        29.98F
PINE RIDGE     CLEAR     61  39  44 E8        29.97F
SPEARFISH      FAIR      54  45  71 S6        29.93F
WINNER         FAIR      58  32  37 SE9       30.03S
$$

SDZ004>011-016>023-039-040-260100-
NORTHEAST SOUTH DAKOTA

CITY           SKY/WX    TMP DP  RH WIND       PRES   REMARKS
ABERDEEN       CLEAR     50  32  50 E6        30.06F
WATERTOWN      CLEAR     52  29  41 NE5       30.08F
SISSETON         N/A     41  28  60 CALM      30.06F
$$

SDZ017-020-022-023-036>040-048>070-260100-
SOUTHEAST SOUTH DAKOTA

CITY           SKY/WX    TMP DP  RH WIND       PRES   REMARKS
SIOUX FALLS    CLEAR     54  36  50 NE5       30.06F
HURON          CLEAR     55  31  39 NE5       30.05F
CHAMBERLAIN    CLEAR     56  30  36 E6        30.04S
MITCHELL       CLEAR     58  34  40 NE3       30.05F
YANKTON        CLEAR     61  34  36 NE6       30.05S
$$

ABBREVIATIONS USED IN REMARKS
   TC - TEMPERATURE IN CELSIUS
  WCI - WIND CHILL INDEX
   HX - HEAT INDEX
  VSB - VISIBILITY




USA.gov is the U.S. government's official web portal to all federal, state and local government web resources and services.